Regional Weather Roundup
Issued by NWS

Home | Current Version | Previous Version | Text Only | Print | Product List | Glossary On
Versions: 1 2 3 4 5 6 7 8 9 10 11 12 13 14 15 16 17 18 19 20 21 22 23 24 25 26 27 28 29 30 31 32 33 34 35 36 37 38 39 40 41 42 43 44 45 46 47 48 49 50
000
ASUS43 KTOP 031059
RWRKS

WEATHER ROUNDUP FOR KANSAS
NATIONAL WEATHER SERVICE GOODLAND KS
600 AM CDT TUE MAY 03 2016

NOTE:  "FAIR" INDICATES FEW OR NO CLOUDS BELOW 12,000 FEET WITH NO
SIGNIFICANT WEATHER AND/OR OBSTRUCTIONS TO VISIBILITY.

KSZ001>006-013>018-027>032-041>047-031200-
NORTHWEST KANSAS

CITY           SKY/WX    TMP DP  RH WIND       PRES   REMARKS
GOODLAND       MOCLDY    40  36  86 NW5       30.04S
HAYS           CLOUDY    43  34  70 W9        30.04S
HILL CITY      CLOUDY    50  42  74 N7        30.02F
RUSSELL        CLOUDY    47  41  80 SW9       30.01S
$$

KSZ061>065-074>080-084>089-031200-
SOUTHWEST KANSAS

CITY           SKY/WX    TMP DP  RH WIND       PRES   REMARKS
DODGE CITY     PTCLDY    45  35  68 SW9       30.05S
ELKHART          N/A     48  38  68 SW8         N/A
GARDEN CITY    CLOUDY    41  36  82 W9        30.04S
GREAT BEND     CLOUDY    45  36  70 SW5       30.04S
LIBERAL        PTCLDY    46  37  71 SW8       30.06F
$$

KSZ066>073-081>083-090>101-031200-
SOUTHEAST KANSAS

CITY           SKY/WX    TMP DP  RH WIND       PRES   REMARKS
CHANUTE        PTCLDY    39  37  92 CALM      30.08S FOG
COFFEYVILLE    PTCLDY    41  39  93 CALM      30.09S
HUTCHINSON     CLEAR     39  36  89 E3        30.05S
MEDICINE LODGE   N/A     39  37  92 CALM      30.06R
NEWTON         CLEAR     43  36  75 S6        30.08S
PARSONS        CLEAR     39  39 100 CALM      30.10R FOG
WICHITA INTL   PTCLDY    42  39  89 SE5       30.06S
WICHITA JABRA  CLEAR     41  39  93 S3        30.07R
WINFIELD       PTCLDY    41  39  93 CALM      30.15F
$$

KSZ007>012-019>026-033>040-048>060-102>105-031200-
NORTHEAST KANSAS

CITY           SKY/WX    TMP DP  RH WIND       PRES   REMARKS
CONCORDIA      MOCLDY    41  37  86 E5        30.04F
EMPORIA        CLEAR     42  41  96 CALM      30.07S
LAWRENCE       PTCLDY    39  38  96 NW5       30.07S
MANHATTAN      PTCLDY    40  37  89 CALM      30.07S FOG
OLATHE IND     CLEAR     43  41  93 CALM      30.07F
OLATHE EXE     PTCLDY    45  43  93 NW3       30.06F
SALINA         PTCLDY    43  39  86 SE5       30.05S
TOPEKA BILLARD FOG       39  37  92 CALM      30.08R VSB 3/4
TOPEKA FORBES  CLEAR     39  37  92 CALM      30.07S
$$




USA.gov is the U.S. government's official web portal to all federal, state and local government web resources and services.